• în Republica Moldova
  • Lista ţărilor
  • Pe 7 zile
  • Temperatura apei
  • Hartă satelitară
  • Meteo pe hartă
  • Widget-uri
  • user-avatar
    Intrare

    Meteo pe oră la Shkoder

    Astăzi, 18 Ianuarie, Vineri

    Timp Temperatura Precipitaţii Vânt Presiune Umiditate
    00:00 +4°C° 0 mm 2 m/s 741 mmHg 77%
    01:00 +5°C° 0 mm 2 m/s 741 mmHg 84%
    02:00 +5°C° 0 mm 2 m/s 741 mmHg 85%
    03:00 +5°C° 0 mm 2 m/s 740 mmHg 85%
    04:00 +6°C° 0 mm 2 m/s 740 mmHg 86%
    05:00 +6°C° 0.1 mm 2 m/s 740 mmHg 87%
    06:00 +7°C° 0.1 mm 1 m/s 740 mmHg 87%
    07:00 +6°C° 0 mm 2 m/s 739 mmHg 87%
    08:00 +6°C° 0.1 mm 2 m/s 739 mmHg 88%
    09:00 +8°C° 0.1 mm 1 m/s 739 mmHg 89%
    10:00 +8°C° 0.1 mm 1 m/s 739 mmHg 90%
    11:00 +8°C° 0.2 mm 1 m/s 739 mmHg 91%
    12:00 +8°C° 0.2 mm 1 m/s 738 mmHg 91%
    13:00 +8°C° 0.2 mm 1 m/s 738 mmHg 91%
    14:00 +8°C° 0.1 mm 1 m/s 738 mmHg 91%
    15:00 +8°C° 0.1 mm 1 m/s 738 mmHg 91%
    16:00 +7°C° 0.1 mm 2 m/s 738 mmHg 91%
    17:00 +7°C° 0.2 mm 2 m/s 738 mmHg 92%
    18:00 +8°C° 0.2 mm 1 m/s 738 mmHg 92%
    19:00 +7°C° 0.2 mm 1 m/s 739 mmHg 92%
    20:00 +7°C° 0.4 mm 1 m/s 739 mmHg 92%
    21:00 +7°C° 0.4 mm 1 m/s 739 mmHg 92%
    22:00 +7°C° 0.4 mm 1 m/s 740 mmHg 92%
    23:00 +7°C° 0.8 mm 1 m/s 740 mmHg 93%

    Mâine, 19 Ianuarie, Sâmbătă

    Timp Temperatura Precipitaţii Vânt Presiune Umiditate
    00:00 +7°C° 0.8 mm 1 m/s 740 mmHg 93%
    01:00 +7°C° 0.8 mm 1 m/s 740 mmHg 93%
    02:00 +7°C° 0.8 mm 1 m/s 740 mmHg 92%
    03:00 +6°C° 0.8 mm 2 m/s 740 mmHg 91%
    04:00 +6°C° 0.8 mm 2 m/s 740 mmHg 90%
    05:00 +6°C° 0.7 mm 2 m/s 740 mmHg 89%
    06:00 +6°C° 0.7 mm 2 m/s 740 mmHg 88%
    07:00 +6°C° 0.7 mm 2 m/s 740 mmHg 87%
    08:00 +6°C° 0.3 mm 2 m/s 740 mmHg 86%
    09:00 +7°C° 0.3 mm 2 m/s 740 mmHg 84%
    10:00 +7°C° 0.3 mm 2 m/s 740 mmHg 83%
    11:00 +8°C° 0.1 mm 2 m/s 740 mmHg 81%
    12:00 +9°C° 0.1 mm 2 m/s 739 mmHg 80%
    13:00 +9°C° 0.1 mm 2 m/s 739 mmHg 78%
    14:00 +10°C° 0 mm 1 m/s 739 mmHg 80%
    15:00 +9°C° 0 mm 1 m/s 739 mmHg 81%
    16:00 +9°C° 0 mm 1 m/s 738 mmHg 83%
    17:00 +7°C° 0 mm 2 m/s 738 mmHg 83%
    18:00 +7°C° 0 mm 2 m/s 738 mmHg 83%
    19:00 +6°C° 0 mm 2 m/s 738 mmHg 83%
    20:00 +6°C° 0 mm 2 m/s 739 mmHg 83%
    21:00 +6°C° 0 mm 2 m/s 739 mmHg 82%
    22:00 +6°C° 0 mm 2 m/s 739 mmHg 81%
    23:00 +6°C° 0.3 mm 2 m/s 738 mmHg 82%

    Poimâine, 20 Ianuarie, Duminică

    Timp Temperatura Precipitaţii Vânt Presiune Umiditate
    00:00 +6°C° 0.3 mm 2 m/s 738 mmHg 82%
    01:00 +6°C° 0.3 mm 2 m/s 738 mmHg 82%
    02:00 +7°C° 1.6 mm 1 m/s 738 mmHg 84%
    03:00 +7°C° 1.6 mm 1 m/s 738 mmHg 85%
    04:00 +6°C° 1.6 mm 1 m/s 737 mmHg 87%
    05:00 +6°C° 1.9 mm 1 m/s 737 mmHg 87%
    06:00 +6°C° 1.9 mm 1 m/s 738 mmHg 88%
    07:00 +7°C° 1.9 mm 1 m/s 738 mmHg 88%
    08:00 +7°C° 0.8 mm 1 m/s 738 mmHg 88%
    09:00 +7°C° 0.8 mm 1 m/s 738 mmHg 88%
    10:00 +7°C° 0.8 mm 1 m/s 738 mmHg 88%
    11:00 +8°C° 0.3 mm 1 m/s 738 mmHg 88%
    12:00 +8°C° 0.3 mm 1 m/s 738 mmHg 88%
    13:00 +8°C° 0.3 mm 2 m/s 737 mmHg 89%
    14:00 +9°C° 0.2 mm 1 m/s 737 mmHg 90%
    15:00 +9°C° 0.2 mm 1 m/s 737 mmHg 90%
    16:00 +8°C° 0.2 mm 1 m/s 738 mmHg 91%
    17:00 +8°C° 0 mm 1 m/s 738 mmHg 92%
    18:00 +7°C° 0 mm 1 m/s 738 mmHg 92%
    19:00 +6°C° 0 mm 1 m/s 738 mmHg 93%
    20:00 +6°C° 0 mm 1 m/s 739 mmHg 92%
    21:00 +6°C° 0 mm 1 m/s 739 mmHg 91%
    22:00 +6°C° 0 mm 1 m/s 739 mmHg 89%
    23:00 +6°C° 0 mm 1 m/s 739 mmHg 88%

    21 Ianuarie, Luni

    Timp Temperatura Precipitaţii Vânt Presiune Umiditate
    00:00 +5°C° 0 mm 1 m/s 739 mmHg 87%
    01:00 +4°C° 0 mm 2 m/s 739 mmHg 85%
    02:00 +4°C° 0 mm 2 m/s 739 mmHg 84%
    03:00 +4°C° 0 mm 2 m/s 739 mmHg 82%
    04:00 +4°C° 0 mm 2 m/s 739 mmHg 81%
    05:00 +3°C° 0 mm 2 m/s 740 mmHg 80%
    06:00 +3°C° 0 mm 2 m/s 740 mmHg 79%
    07:00 +3°C° 0 mm 2 m/s 740 mmHg 78%
    08:00 +5°C° 0 mm 2 m/s 740 mmHg 75%
    09:00 +6°C° 0 mm 2 m/s 741 mmHg 73%
    10:00 +7°C° 0 mm 2 m/s 741 mmHg 71%
    11:00 +8°C° 0 mm 2 m/s 741 mmHg 69%
    12:00 +9°C° 0 mm 2 m/s 740 mmHg 67%
    13:00 +9°C° 0 mm 2 m/s 740 mmHg 65%
    14:00 +9°C° 0 mm 2 m/s 740 mmHg 68%
    15:00 +8°C° 0 mm 2 m/s 740 mmHg 71%
    16:00 +7°C° 0 mm 2 m/s 740 mmHg 74%
    17:00 +5°C° 0 mm 3 m/s 741 mmHg 75%
    18:00 +5°C° 0 mm 3 m/s 741 mmHg 77%
    19:00 +4°C° 0 mm 3 m/s 741 mmHg 78%
    20:00 +3°C° 0 mm 3 m/s 741 mmHg 77%
    21:00 +3°C° 0 mm 3 m/s 741 mmHg 76%
    22:00 +3°C° 0 mm 3 m/s 741 mmHg 76%
    23:00 +3°C° 0.1 mm 3 m/s 741 mmHg 76%

    22 Ianuarie, Marţi

    Timp Temperatura Precipitaţii Vânt Presiune Umiditate
    00:00 +3°C° 0.1 mm 3 m/s 741 mmHg 75%
    01:00 +3°C° 0.1 mm 3 m/s 741 mmHg 75%
    02:00 +3°C° 0.1 mm 3 m/s 740 mmHg 76%
    03:00 +3°C° 0.1 mm 4 m/s 740 mmHg 76%
    04:00 +3°C° 0.1 mm 4 m/s 739 mmHg 76%
    05:00 +3°C° 0.1 mm 4 m/s 739 mmHg 76%
    06:00 +3°C° 0.1 mm 4 m/s 739 mmHg 77%
    07:00 +3°C° 0.1 mm 4 m/s 739 mmHg 77%
    08:00 +4°C° 0.1 mm 4 m/s 738 mmHg 75%
    09:00 +4°C° 0.1 mm 4 m/s 738 mmHg 74%
    10:00 +5°C° 0.1 mm 4 m/s 738 mmHg 72%
    11:00 +5°C° 0.2 mm 3 m/s 737 mmHg 72%
    12:00 +7°C° 0.2 mm 3 m/s 736 mmHg 71%
    13:00 +7°C° 0.2 mm 3 m/s 735 mmHg 71%
    14:00 +7°C° 0.2 mm 3 m/s 735 mmHg 73%
    15:00 +7°C° 0.2 mm 3 m/s 734 mmHg 74%
    16:00 +7°C° 0.2 mm 3 m/s 733 mmHg 76%
    17:00 +6°C° 0.3 mm 2 m/s 733 mmHg 78%
    18:00 +6°C° 0.3 mm 2 m/s 733 mmHg 79%
    19:00 +6°C° 0.3 mm 2 m/s 732 mmHg 81%
    20:00 +6°C° 1.8 mm 2 m/s 732 mmHg 83%
    21:00 +5°C° 1.8 mm 2 m/s 731 mmHg 85%
    22:00 +5°C° 1.8 mm 2 m/s 731 mmHg 87%
    23:00 +5°C° 0.5 mm 2 m/s 730 mmHg 86%

    23 Ianuarie, Miercuri

    Timp Temperatura Precipitaţii Vânt Presiune Umiditate
    00:00 +5°C° 0.5 mm 2 m/s 729 mmHg 85%
    01:00 +5°C° 0.5 mm 2 m/s 728 mmHg 84%
    02:00 +5°C° 1.6 mm 2 m/s 727 mmHg 86%
    03:00 +5°C° 1.6 mm 2 m/s 727 mmHg 88%
    04:00 +6°C° 1.6 mm 1 m/s 726 mmHg 90%
    05:00 +5°C° 3.8 mm 2 m/s 726 mmHg 91%
    06:00 +5°C° 3.8 mm 2 m/s 725 mmHg 92%
    07:00 +5°C° 3.8 mm 2 m/s 725 mmHg 93%
    08:00 +5°C° 2.2 mm 3 m/s 725 mmHg 93%
    09:00 +5°C° 2.2 mm 4 m/s 725 mmHg 92%
    10:00 +6°C° 2.2 mm 4 m/s 725 mmHg 92%
    11:00 +6°C° 1.7 mm 4 m/s 724 mmHg 93%
    12:00 +6°C° 1.7 mm 4 m/s 723 mmHg 94%
    13:00 +6°C° 1.7 mm 4 m/s 723 mmHg 96%
    14:00 +6°C° 3 mm 4 m/s 723 mmHg 94%
    15:00 +6°C° 3 mm 4 m/s 722 mmHg 92%
    16:00 +5°C° 3 mm 3 m/s 722 mmHg 91%
    17:00 +6°C° 2.2 mm 4 m/s 722 mmHg 91%
    18:00 +6°C° 2.2 mm 5 m/s 722 mmHg 91%
    19:00 +5°C° 2.2 mm 6 m/s 721 mmHg 92%
    20:00 +5°C° 3.8 mm 6 m/s 721 mmHg 92%
    21:00 +5°C° 3.8 mm 6 m/s 721 mmHg 92%
    22:00 +5°C° 3.8 mm 6 m/s 721 mmHg 92%
    23:00 +5°C° 2.4 mm 6 m/s 720 mmHg 92%
    Arată mai mult